When you browse on this site, cookies collect data to enhance your experience and personalize the content and advertising you see.
Visit our Privacy Policy to learn more. By continuing to use the site, you agree to this use of cookies and data.
  • en Suisse
  • Liste des pays
  • À 7 jours
  • Température de l'eau
  • Carte satellitaire
  • Carte météo
  • Widgets météo
  • user-avatar
    Se connecter

    Météo par heure à Yangzhou

    Ce jour, 23 Juillet, Mardi

    Heure Température Précipitation Vent Pression Humidité
    00:00 +29°C° 0 mm 2 m/s 749 mmHg 88%
    01:00 +29°C° 0 mm 2 m/s 749 mmHg 87%
    02:00 +29°C° 0 mm 2 m/s 749 mmHg 84%
    03:00 +29°C° 0 mm 2 m/s 749 mmHg 85%
    04:00 +29°C° 0 mm 1 m/s 749 mmHg 86%
    05:00 +29°C° 0 mm 1 m/s 749 mmHg 87%
    06:00 +30°C° 0 mm 1 m/s 749 mmHg 83%
    07:00 +31°C° 0 mm 2 m/s 750 mmHg 79%
    08:00 +34°C° 0 mm 2 m/s 750 mmHg 76%
    09:00 +35°C° 1 mm 3 m/s 750 mmHg 72%
    10:00 +36°C° 1 mm 3 m/s 749 mmHg 67%
    11:00 +37°C° 1 mm 3 m/s 749 mmHg 63%
    12:00 +37°C° 0.4 mm 3 m/s 749 mmHg 64%
    13:00 +37°C° 0.4 mm 4 m/s 748 mmHg 64%
    14:00 +37°C° 0 mm 4 m/s 749 mmHg 64%
    15:00 +37°C° 0.7 mm 4 m/s 748 mmHg 66%
    16:00 +37°C° 0.7 mm 3 m/s 748 mmHg 68%
    17:00 +36°C° 0.7 mm 3 m/s 748 mmHg 70%
    18:00 +35°C° 0.5 mm 3 m/s 748 mmHg 74%
    19:00 +34°C° 0.5 mm 3 m/s 748 mmHg 78%
    20:00 +31°C° 0.5 mm 3 m/s 749 mmHg 82%
    21:00 +31°C° 0.3 mm 3 m/s 749 mmHg 82%
    22:00 +30°C° 0.3 mm 3 m/s 749 mmHg 82%
    23:00 +30°C° 0.3 mm 3 m/s 749 mmHg 82%

    Demain, 24 Juillet, Mercredi

    Heure Température Précipitation Vent Pression Humidité
    00:00 +30°C° 0 mm 3 m/s 749 mmHg 83%
    01:00 +30°C° 0 mm 3 m/s 749 mmHg 83%
    02:00 +29°C° 0 mm 3 m/s 749 mmHg 84%
    03:00 +29°C° 0 mm 3 m/s 749 mmHg 84%
    04:00 +29°C° 0 mm 3 m/s 749 mmHg 85%
    05:00 +29°C° 0 mm 3 m/s 749 mmHg 85%
    06:00 +30°C° 0 mm 3 m/s 749 mmHg 82%
    07:00 +32°C° 0 mm 4 m/s 750 mmHg 79%
    08:00 +33°C° 0 mm 5 m/s 750 mmHg 76%
    09:00 +34°C° 0 mm 5 m/s 750 mmHg 73%
    10:00 +35°C° 0 mm 4 m/s 750 mmHg 70%
    11:00 +36°C° 0 mm 4 m/s 750 mmHg 67%
    12:00 +37°C° 1.5 mm 4 m/s 749 mmHg 66%
    13:00 +37°C° 1.5 mm 4 m/s 749 mmHg 65%
    14:00 +37°C° 1.5 mm 3 m/s 749 mmHg 65%
    15:00 +37°C° 1 mm 3 m/s 749 mmHg 67%
    16:00 +36°C° 1 mm 3 m/s 749 mmHg 70%
    17:00 +36°C° 1 mm 3 m/s 749 mmHg 73%
    18:00 +35°C° 0.1 mm 3 m/s 749 mmHg 75%
    19:00 +34°C° 0.1 mm 3 m/s 749 mmHg 78%
    20:00 +31°C° 0.1 mm 3 m/s 750 mmHg 81%
    21:00 +31°C° 0 mm 3 m/s 750 mmHg 82%
    22:00 +31°C° 0 mm 3 m/s 750 mmHg 84%
    23:00 +30°C° 0 mm 3 m/s 750 mmHg 85%

    Après-demain, 25 Juillet, Jeudi

    Heure Température Précipitation Vent Pression Humidité
    00:00 +30°C° 0.1 mm 3 m/s 750 mmHg 85%
    01:00 +30°C° 0.1 mm 3 m/s 750 mmHg 86%
    02:00 +30°C° 0.1 mm 3 m/s 750 mmHg 86%
    03:00 +30°C° 0 mm 3 m/s 750 mmHg 86%
    04:00 +30°C° 0 mm 3 m/s 750 mmHg 85%
    05:00 +29°C° 0 mm 3 m/s 750 mmHg 85%
    06:00 +30°C° 0 mm 3 m/s 750 mmHg 83%
    07:00 +31°C° 0 mm 3 m/s 751 mmHg 80%
    08:00 +33°C° 0 mm 4 m/s 751 mmHg 78%
    09:00 +34°C° 2 mm 3 m/s 751 mmHg 74%
    10:00 +35°C° 2 mm 3 m/s 751 mmHg 71%
    11:00 +37°C° 2 mm 3 m/s 751 mmHg 67%
    12:00 +37°C° 0.7 mm 3 m/s 750 mmHg 65%
    13:00 +38°C° 0.7 mm 3 m/s 750 mmHg 62%
    14:00 +38°C° 0.7 mm 3 m/s 749 mmHg 59%
    15:00 +37°C° 0.9 mm 3 m/s 749 mmHg 64%
    16:00 +37°C° 0.9 mm 3 m/s 749 mmHg 68%
    17:00 +36°C° 0.9 mm 3 m/s 749 mmHg 73%
    18:00 +35°C° 0.2 mm 2 m/s 749 mmHg 75%
    19:00 +34°C° 0.2 mm 2 m/s 749 mmHg 78%
    20:00 +31°C° 0.2 mm 2 m/s 749 mmHg 81%
    21:00 +31°C° 0 mm 2 m/s 749 mmHg 81%
    22:00 +31°C° 0 mm 2 m/s 750 mmHg 82%
    23:00 +30°C° 0 mm 2 m/s 750 mmHg 83%

    26 Juillet, Vendredi

    Heure Température Précipitation Vent Pression Humidité
    00:00 +30°C° 0 mm 2 m/s 749 mmHg 83%
    01:00 +30°C° 0 mm 3 m/s 749 mmHg 83%
    02:00 +30°C° 0 mm 3 m/s 749 mmHg 82%
    03:00 +30°C° 0 mm 3 m/s 749 mmHg 83%
    04:00 +29°C° 0 mm 3 m/s 749 mmHg 84%
    05:00 +29°C° 0 mm 3 m/s 749 mmHg 85%
    06:00 +30°C° 0.6 mm 3 m/s 749 mmHg 83%
    07:00 +32°C° 0.6 mm 4 m/s 749 mmHg 81%
    08:00 +33°C° 0.6 mm 4 m/s 750 mmHg 80%
    09:00 +34°C° 2.2 mm 4 m/s 750 mmHg 76%
    10:00 +35°C° 2.2 mm 3 m/s 750 mmHg 72%
    11:00 +37°C° 2.2 mm 3 m/s 749 mmHg 68%
    12:00 +37°C° 0.1 mm 3 m/s 749 mmHg 65%
    13:00 +38°C° 0.1 mm 3 m/s 749 mmHg 61%
    14:00 +38°C° 0.1 mm 3 m/s 748 mmHg 58%
    15:00 +38°C° 1 mm 3 m/s 748 mmHg 64%
    16:00 +37°C° 1 mm 2 m/s 748 mmHg 69%
    17:00 +36°C° 1 mm 2 m/s 748 mmHg 75%
    18:00 +35°C° 0.3 mm 2 m/s 748 mmHg 78%
    19:00 +32°C° 0.3 mm 1 m/s 748 mmHg 80%
    20:00 +31°C° 0.3 mm 1 m/s 749 mmHg 83%
    21:00 +31°C° 0 mm 1 m/s 749 mmHg 83%
    22:00 +31°C° 0 mm 2 m/s 749 mmHg 83%
    23:00 +31°C° 0 mm 2 m/s 749 mmHg 84%

    27 Juillet, Samedi

    Heure Température Précipitation Vent Pression Humidité
    00:00 +30°C° 0.2 mm 2 m/s 749 mmHg 84%
    01:00 +30°C° 0.2 mm 2 m/s 748 mmHg 84%
    02:00 +30°C° 0.2 mm 2 m/s 748 mmHg 85%
    03:00 +30°C° 2.2 mm 2 m/s 748 mmHg 87%
    04:00 +29°C° 2.2 mm 2 m/s 748 mmHg 89%
    05:00 +29°C° 2.2 mm 2 m/s 748 mmHg 91%
    06:00 +29°C° 3.1 mm 2 m/s 749 mmHg 92%
    07:00 +29°C° 3.1 mm 3 m/s 749 mmHg 93%
    08:00 +29°C° 3.1 mm 3 m/s 750 mmHg 93%
    09:00 +30°C° 0.8 mm 3 m/s 750 mmHg 89%
    10:00 +31°C° 0.8 mm 3 m/s 750 mmHg 86%
    11:00 +34°C° 0.8 mm 3 m/s 750 mmHg 82%
    12:00 +33°C° 2 mm 3 m/s 750 mmHg 83%
    13:00 +32°C° 2 mm 2 m/s 750 mmHg 84%
    14:00 +31°C° 2 mm 2 m/s 750 mmHg 86%
    15:00 +32°C° 0 mm 2 m/s 749 mmHg 86%
    16:00 +32°C° 0 mm 2 m/s 749 mmHg 86%
    17:00 +32°C° 0 mm 2 m/s 749 mmHg 87%
    18:00 +31°C° 0 mm 2 m/s 749 mmHg 87%
    19:00 +31°C° 0 mm 3 m/s 749 mmHg 87%
    20:00 +30°C° 0 mm 3 m/s 749 mmHg 87%
    21:00 +30°C° 0.4 mm 3 m/s 749 mmHg 88%
    22:00 +30°C° 0.4 mm 3 m/s 750 mmHg 89%
    23:00 +29°C° 0.4 mm 3 m/s 750 mmHg 90%

    28 Juillet, Dimanche

    Heure Température Précipitation Vent Pression Humidité
    00:00 +29°C° 0.3 mm 3 m/s 750 mmHg 90%
    01:00 +29°C° 0.3 mm 2 m/s 749 mmHg 90%
    02:00 +29°C° 0.3 mm 2 m/s 749 mmHg 90%
    03:00 +29°C° 0.1 mm 2 m/s 749 mmHg 89%
    04:00 +29°C° 0.1 mm 2 m/s 750 mmHg 88%
    05:00 +29°C° 0.1 mm 2 m/s 750 mmHg 87%
    06:00 +31°C° 0 mm 2 m/s 750 mmHg 84%
    07:00 +33°C° 0 mm 3 m/s 750 mmHg 82%
    08:00 +34°C° 0 mm 3 m/s 751 mmHg 79%
    09:00 +35°C° 0 mm 3 m/s 751 mmHg 75%
    10:00 +36°C° 0 mm 4 m/s 751 mmHg 70%
    11:00 +37°C° 0 mm 5 m/s 751 mmHg 66%
    12:00 +39°C° 0 mm 5 m/s 750 mmHg 65%
    13:00 +39°C° 0 mm 5 m/s 750 mmHg 64%
    14:00 +39°C° 0 mm 5 m/s 750 mmHg 63%
    15:00 +38°C° 0.1 mm 4 m/s 750 mmHg 67%
    16:00 +37°C° 0.1 mm 4 m/s 749 mmHg 70%
    17:00 +37°C° 0.1 mm 3 m/s 749 mmHg 73%
    18:00 +36°C° 0 mm 3 m/s 749 mmHg 74%
    19:00 +35°C° 0 mm 3 m/s 750 mmHg 75%
    20:00 +34°C° 0 mm 2 m/s 750 mmHg 75%
    21:00 +32°C° 0 mm 2 m/s 750 mmHg 76%
    22:00 +32°C° 0 mm 2 m/s 750 mmHg 78%
    23:00 +31°C° 0 mm 2 m/s 750 mmHg 79%
    Voir plus